Starlink 31822

operational
NORAD ID: 59752 Int'l Des: 2024-090 Owner: SPXS Country: US Constellation: starlink
LEOCIRCULAR

About Starlink 31822

Description loading...

Live Position

Loading 3D Globe...

Upcoming Passes

Altitude History

Altitude vs Time

uPlot chart will show altitude changes over time

Two-Line Element Set

1 59752U 24090Y 25352.23188104 -.00000874 00000-0 -22255-4 0 9998
2 59752 42.9986 283.4043 0000748 294.4738 65.6036 15.27576748 90971
Epoch: Dec 18, 2025 • Age: 19 hours

Current Status

Altitude 483.7 km
Velocity 7.63 km/s
Sub-Earth Point 27.04°N, 37.03°W
Launch Date May 13, 2024
Age 1.6 years
Type internet

Technical Details

Classification Payload
Mass 730.00 kg
Dry Mass 700.00 kg
Total Mass 730.00 kg
Length 0.30 m
Diameter 4.10 m
Span 29.00 m
Shape Box + pan
Manufacturer SPXS
Bus Type Starlink V2M
Phase Status In Orbit
Owner/State SPXS/US

Large Constellations

Loading constellations...